Content
SEND FEEDBACK

Daily
Averages
Monthly
Summary
United States of America

ROCK HILL, NEW YORK


Home > North America > United States > New York
Elevation: 384 meters     Latitude: 41 35N     Longitude: 074 37W

WEATHER
 
SELECT A DAY
Number of Records: 443,433;   Date Range: 1/1/95 - 7/26/14
 
SHARE

PRINT THIS DATA

[ ← Previous Day ]
WEATHER ALMANAC - 17 APRIL, 2014
[ Next Day → ]
[ °F ]   °C
Weather ElementAverageHighLow
Temperature1.6 °C9 °C (3:55 pm)-5 °C (5:15 am)
Dewpoint-7.4 °C-4 °C (8:35 pm)-9 °C (12:35 am)
Humidity54.7 %80 % (2:35 am)27 % (4:35 pm)
Barometer1036.2 hPa1038.9 hPa (9:55 am)1034.5 hPa (12:35 am)
Wind Speed13.4 km/h22.2 km/h (1:55 pm)
Wind Gust35.2 km/h (7:55 am)
Weather ElementAverage
Visibility16.1 km
Wind DirectionESE (109.6 °)

Weather ElementTotal
Precipitation---
Heating Degree Days16.3 (Base 18.3)
Averaged from 70 records on 17 April, 2014
WEATHER CONDITIONS BREAKOUT
WIND DIRECTION BREAKOUT
WEATHER BY HOUR - 17 APRIL, 2014
[ °F ]   °C
Local TimeTemperatureDewpointHumidityBarometerVisibilityWind DirectionWind SpeedGust SpeedPrecipitationEventsConditions
12:35 AM-3 °C-9 °C64 %1034.5 hPa16.1 kmCalmClear
12:55 AM-3 °C-8 °C69 %1034.9 hPa16.1 kmCalmClear
1:15 AM-3 °C-8 °C69 %1035.2 hPa16.1 kmCalmClear
1:35 AM-4 °C-8 °C74 %1034.9 hPa16.1 kmNNE (30°)5.6 km/hClear
1:55 AM-3 °C-8 °C69 %1035.2 hPa16.1 kmNE (50°)7.4 km/hClear
2:15 AM-3 °C-8 °C69 %1035.2 hPa16.1 kmENE (60°)5.6 km/hClear
2:35 AM-4 °C-7 °C80 %1035.2 hPa16.1 kmENE (60°)5.6 km/hClear
2:55 AM-4 °C-7 °C80 %1035.6 hPa16.1 kmENE (70°)5.6 km/hClear
3:15 AM-4 °C-8 °C74 %1035.9 hPa16.1 kmEast (80°)5.6 km/hClear
3:35 AM-4 °C-8 °C74 %1035.6 hPa16.1 kmEast (80°)7.4 km/hClear
3:55 AM-4 °C-8 °C74 %1035.9 hPa16.1 kmEast (80°)5.6 km/hClear
4:15 AM-4 °C-8 °C74 %1035.9 hPa16.1 kmEast (80°)5.6 km/hClear
4:35 AM-4 °C-8 °C74 %1035.9 hPa16.1 kmEast (80°)5.6 km/hClear
4:55 AM-4 °C-9 °C69 %1035.9 hPa16.1 kmENE (70°)9.3 km/hClear
5:15 AM-5 °C-8 °C80 %1035.9 hPa16.1 kmEast (80°)9.3 km/hClear
5:35 AM-5 °C-8 °C80 %1036.2 hPa16.1 kmEast (80°)9.3 km/hClear
5:55 AM-5 °C-9 °C74 %1036.2 hPa16.1 kmEast (90°)9.3 km/hClear
6:15 AM-4 °C-9 °C69 %1036.2 hPa16.1 kmEast (80°)13 km/hClear
6:35 AM-4 °C-8 °C74 %1036.6 hPa16.1 kmEast (90°)13 km/hClear
6:55 AM-4 °C-8 °C74 %1036.9 hPa16.1 kmEast (90°)14.8 km/hClear
7:15 AM-3 °C-8 °C69 %1037.3 hPa16.1 kmEast (90°)13 km/hClear
7:35 AM-3 °C-8 °C69 %1037.6 hPa16.1 kmEast (90°)13 km/hClear
7:55 AM-2 °C-8 °C64 %1037.6 hPa16.1 kmEast (100°)18.5 km/h35.2 km/hClear
8:15 AM-2 °C-7 °C69 %1038.3 hPa16.1 kmESE (110°)18.5 km/hClear
8:35 AM-1 °C-7 °C64 %1038.3 hPa16.1 kmEast (90°)20.4 km/hClear
8:55 AM-1 °C-7 °C64 %1038.6 hPa16.1 kmEast (90°)14.8 km/h25.9 km/hClear
9:15 AM0 °C-8 °C55 %1038.6 hPa16.1 kmEast (90°)16.7 km/hClear
9:35 AM1 °C-8 °C52 %1038.6 hPa16.1 kmEast (100°)13 km/hClear
9:55 AM1 °C-7 °C56 %1038.9 hPa16.1 kmSE (130°)18.5 km/h29.6 km/hClear
10:15 AM2 °C-6 °C56 %1038.9 hPa16.1 kmEast (100°)18.5 km/hClear
10:35 AM2 °C-7 °C52 %1038.9 hPa16.1 kmSE (130°)20.4 km/h25.9 km/hClear
10:55 AM2 °C-7 °C52 %1038.9 hPa16.1 kmESE (120°)14.8 km/hClear
11:15 AM4 °C-6 °C49 %1038.6 hPa16.1 kmSE (140°)18.5 km/h31.5 km/hClear
11:35 AM4 °C-7 °C45 %1038.3 hPa16.1 kmESE (120°)13 km/hClear
12:15 PM5 °C-6 °C45 %1038.3 hPa16.1 kmSE (140°)20.4 km/h25.9 km/hClear
12:35 PM6 °C-8 °C36 %1037.9 hPa16.1 kmESE (110°)16.7 km/hClear
12:55 PM6 °C-6 °C42 %1037.6 hPa16.1 kmSE (130°)13 km/hClear
1:15 PM6 °C-7 °C39 %1037.6 hPa16.1 kmESE (120°)13 km/h27.8 km/hClear
1:35 PM7 °C-7 °C37 %1037.3 hPa16.1 kmESE (110°)9.3 km/hClear
1:55 PM7 °C-7 °C37 %1037.3 hPa16.1 kmESE (120°)22.2 km/h27.8 km/hClear
2:15 PM7 °C-8 °C34 %1036.9 hPa16.1 kmSE (140°)20.4 km/h29.6 km/hClear
2:35 PM8 °C-8 °C32 %1036.9 hPa16.1 kmSE (140°)18.5 km/hClear
2:55 PM8 °C-8 °C32 %1036.6 hPa16.1 kmESE (110°)18.5 km/hClear
3:15 PM8 °C-8 °C32 %1036.2 hPa16.1 kmSouth (170°)11.1 km/h29.6 km/hClear
3:35 PM8 °C-8 °C32 %1035.9 hPa16.1 kmSSE (150°)22.2 km/h27.8 km/hClear
3:55 PM9 °C-8 °C30 %1035.9 hPa16.1 kmSSE (150°)20.4 km/h31.5 km/hClear
4:15 PM9 °C-8 °C30 %1035.9 hPa16.1 kmSE (140°)22.2 km/h31.5 km/hClear
4:35 PM9 °C-9 °C27 %1035.6 hPa16.1 kmSSE (150°)18.5 km/h25.9 km/hClear
4:55 PM9 °C-8 °C30 %1035.6 hPa16.1 kmSouth (170°)20.4 km/hClear
5:15 PM9 °C-8 °C30 %1035.2 hPa16.1 kmSSE (150°)14.8 km/h29.6 km/hClear
5:35 PM8 °C-8 °C32 %1035.2 hPa16.1 kmESE (120°)13 km/h29.6 km/hClear
5:55 PM8 °C-7 °C34 %1035.2 hPa16.1 kmSSE (150°)20.4 km/hClear
6:15 PM7 °C-8 °C34 %1035.6 hPa16.1 kmSE (130°)22.2 km/h33.3 km/hClear
6:35 PM7 °C-8 °C34 %1035.6 hPa16.1 kmSSE (150°)22.2 km/hClear
6:55 PM6 °C-9 °C34 %1035.6 hPa16.1 kmSSE (150°)20.4 km/hClear
7:15 PM6 °C-9 °C34 %1035.2 hPa16.1 kmSE (140°)16.7 km/hClear
7:35 PM5 °C-9 °C36 %1035.2 hPa16.1 kmSE (130°)16.7 km/hClear
7:55 PM4 °C-8 °C42 %1035.2 hPa16.1 kmSE (130°)14.8 km/hClear
8:15 PM3 °C-7 °C48 %1035.6 hPa16.1 kmSSE (150°)13 km/hClear
8:35 PM3 °C-4 °C60 %1035.6 hPa16.1 kmSSE (150°)14.8 km/hClear
8:55 PM3 °C-5 °C56 %1035.2 hPa16.1 kmSSE (150°)18.5 km/hClear
9:15 PM2 °C-5 °C60 %1035.6 hPa16.1 kmSE (140°)16.7 km/hClear
9:35 PM1 °C-4 °C70 %1035.6 hPa16.1 kmSSE (150°)14.8 km/hClear
9:55 PM1 °C-6 °C60 %1035.6 hPa16.1 kmSSE (150°)13 km/hClear
10:15 PM1 °C-6 °C60 %1035.2 hPa16.1 kmSE (130°)9.3 km/hClear
10:35 PM1 °C-6 °C60 %1034.9 hPa16.1 kmSE (140°)9.3 km/hClear
10:55 PM1 °C-6 °C60 %1034.9 hPa16.1 kmESE (120°)5.6 km/hClear
11:15 PM1 °C-6 °C60 %1034.9 hPa16.1 kmESE (110°)9.3 km/hClear
11:35 PM-1 °C-6 °C69 %1034.9 hPa16.1 kmESE (110°)7.4 km/hClear
11:55 PM0 °C-6 °C64 %1034.9 hPa16.1 kmESE (120°)9.3 km/hClear
Hourly data recorded from KMSV, located 0 kilometers away from Rock Hill, New York







STORIES FROM OUR PARTNERS